Weather History for Waukegan, IL

Change the Weather History Date:

Friday, August 30, 2013

  Actual Average Record
Temperature  
Mean Temperature 80 °F -  
Max Temperature 96 °F 78 °F 96 °F (2013)
Min Temperature 64 °F 59 °F 47 °F (2009)
Degree Days  
Heating Degree Days 0 1  
Month to date heating degree days 12 6  
Since 1 June heating degree days 136 104  
Since 1 July heating degree days 39 18  
Cooling Degree Days 15 4  
Month to date cooling degree days 161 165  
Year to date cooling degree days 485 500  
Since 1 June cooling degree days 438 475  
Growing Degree Days 30 (Base 50)    
Moisture  
Dew Point 67 °F    
Average Humidity 68    
Maximum Humidity 93    
Minimum Humidity 43    
Precipitation  
Precipitation 0.11 in 0.11 in 0.16 in (2011)
Month to date precipitation 1.25 3.72  
Year to date precipitation 21.73 24.34  
Sea Level Pressure  
Sea Level Pressure 29.86 in    
Wind  
Wind Speed 8 mph (WSW)    
Max Wind Speed 20 mph    
Max Gust Speed 28 mph    
Visibility 7 miles    
Events Thunderstorm    
T = Trace of Precipitation, MM = Missing Value Source: NWS Daily Summary

Daily Weather History Graph

Daily Weather History Graph

Search for Another Location

Airport:

Trip Planner

Search our weather history database for the weather conditions in past years. The results will help you decide how hot, cold, wet, or windy it might be!

Date:

Astronomy

Aug. 30, 2013 Rise Set
Actual Time 6:14 AM CDT 7:28 PM CDT
Civil Twilight 5:45 AM CDT 7:57 PM CDT
Nautical Twilight 5:10 AM CDT 8:32 PM CDT
Astronomical Twilight 4:34 AM CDT 9:08 PM CDT
Moon 12:49 AM CDT (8/30) 3:47 PM CDT (8/30)
Length of Visible Light 14h 11m
Length of Day
13h 13m
Waning Crescent, 29% of the Moon is Illuminated
Aug 30
Waning Crescent
Sep 5
New
Sep 12
First Quarter
Sep 19
Full
Sep 26
Last Quarter

Hourly Weather History & Observations

Time (CDT) Temp. Heat Index Dew Point Humidity Pressure Visibility Wind Dir Wind Speed Gust Speed Precip Events Conditions
12:00 AM 68.0 °F - 66.2 °F 94% 29.99 in 2.0 mi Calm Calm - N/A   Clear
12:09 AM 66.2 °F - 66.2 °F 100% 29.99 in 1.8 mi Calm Calm - N/A   Clear
12:16 AM 68.0 °F - 66.2 °F 94% 29.99 in 2.5 mi Calm Calm - N/A   Clear
12:24 AM 66.2 °F - 66.2 °F 100% 29.99 in 3.0 mi Calm Calm - N/A   Clear
12:52 AM 66.0 °F - 64.9 °F 96% 29.96 in 6.0 mi Calm Calm - N/A   Clear
1:52 AM 66.0 °F - 64.9 °F 96% 29.95 in 4.0 mi Calm Calm - N/A   Clear
2:19 AM 66.2 °F - 64.4 °F 94% 29.97 in 2.5 mi Calm Calm - N/A   Clear
2:27 AM 64.4 °F - 64.4 °F 100% 29.98 in 4.0 mi Calm Calm - N/A   Clear
2:52 AM 66.0 °F - 64.9 °F 96% 29.94 in 5.0 mi Calm Calm - N/A   Clear
3:52 AM 66.0 °F - 64.9 °F 96% 29.92 in 3.0 mi Calm Calm - N/A   Clear
4:52 AM 69.1 °F - 64.9 °F 87% 29.89 in 6.0 mi SSW 6.9 mph - N/A   Clear
5:52 AM 69.1 °F - 64.9 °F 87% 29.89 in 6.0 mi SW 4.6 mph - N/A   Clear
6:52 AM 69.1 °F - 66.0 °F 90% 29.89 in 5.0 mi SSW 4.6 mph - N/A   Partly Cloudy
7:52 AM 72.0 °F - 66.9 °F 84% 29.89 in 6.0 mi SW 5.8 mph - N/A   Haze
8:52 AM 78.1 °F - 69.1 °F 74% 29.87 in 8.0 mi SSW 12.7 mph - N/A   Clear
9:52 AM 84.0 °F 87.8 °F 69.1 °F 61% 29.85 in 9.0 mi SSW 12.7 mph - N/A   Clear
10:52 AM 87.1 °F 92.8 °F 71.1 °F 59% 29.83 in 9.0 mi SW 12.7 mph 20.7 mph N/A   Clear
11:52 AM 90.0 °F 96.9 °F 72.0 °F 55% 29.81 in 10.0 mi SSW 11.5 mph 20.7 mph N/A   Clear
12:52 PM 91.9 °F 99.5 °F 72.0 °F 52% 29.79 in 10.0 mi SSW 15.0 mph 20.7 mph N/A   Clear
1:52 PM 93.0 °F 100.7 °F 72.0 °F 50% 29.78 in 10.0 mi SW 16.1 mph 20.7 mph N/A   Scattered Clouds
2:52 PM 95.0 °F 101.3 °F 70.0 °F 44% 29.75 in 10.0 mi Variable 6.9 mph - N/A   Clear
3:52 PM 95.0 °F 101.3 °F 70.0 °F 44% 29.73 in 10.0 mi SW 10.4 mph 19.6 mph N/A   Partly Cloudy
4:34 PM 91.4 °F 96.8 °F 69.8 °F 49% 29.76 in 10.0 mi Variable 4.6 mph - N/A Thunderstorm Partly Cloudy
4:52 PM 86.0 °F 90.1 °F 69.1 °F 57% 29.74 in 10.0 mi WNW 9.2 mph 27.6 mph N/A Thunderstorm Thunderstorm
5:52 PM 73.9 °F - 72.0 °F 93% 29.76 in 4.0 mi WNW 9.2 mph - 0.11 in Thunderstorm Scattered Clouds
6:14 PM 73.4 °F - 66.2 °F 78% 29.80 in 10.0 mi Variable 5.8 mph 19.6 mph N/A   Partly Cloudy
6:52 PM 71.1 °F - 66.0 °F 84% 29.76 in 10.0 mi Calm Calm - N/A   Clear
7:52 PM 71.1 °F - 66.9 °F 87% 29.81 in 10.0 mi Variable 4.6 mph - N/A   Clear
8:48 PM 73.4 °F - 68.0 °F 83% 29.85 in 10.0 mi North 9.2 mph - N/A   Mostly Cloudy
8:52 PM 73.0 °F - 68.0 °F 84% 29.82 in 10.0 mi NNE 11.5 mph 19.6 mph N/A   Mostly Cloudy
9:52 PM 71.1 °F - 66.9 °F 87% 29.83 in 10.0 mi NNE 8.1 mph - N/A   Overcast
10:34 PM 71.6 °F - 66.2 °F 83% 29.87 in 10.0 mi North 8.1 mph - N/A   Overcast
10:52 PM 70.0 °F - 66.0 °F 87% 29.83 in 10.0 mi North 9.2 mph 16.1 mph N/A   Overcast
11:52 PM 70.0 °F - 64.9 °F 84% 29.83 in 10.0 mi North 6.9 mph - N/A   Overcast